Location: Brookview Estates
(36.0476°N, 86.6931°W)
Time: 13:12:54
(UTC+00:00)

Meteor 2-15 - Pass Details

Date: 30 March 2020
Orbit: 937 x 954 km, 82.5° (Epoch: 24 May)

Event Time Altitude Azimuth Distance (km) Brightness Sun altitude
Rises 01:13:10 0° 175° (S) 3,587 7.3 -14.0°
Reaches altitude 10° 01:15:40 10° 171° (S) 2,645 6.5 -14.5°
Maximum altitude 01:21:36 61° 93° (E) 1,062 4.4 -15.7°
Drops below altitude 10° 01:27:33 10° 15° (NNE) 2,655 6.8 -16.8°
Sets 01:30:04 0° 12° (NNE) 3,603 7.6 -17.3°
